Orbital Elements
Epoch 2003 Aug. 29.0 TT = JDT 2452880.5
T 2003 Aug. 18.03526 TT Muraoka
q 1.9797387 (2000.0) P Q
n 0.15663929 Peri. 181.53398 -0.77406810 +0.57451461
a 3.4082824 Node 37.89196 -0.57615094 -0.46509400
e 0.4191389 Incl. 25.66370 -0.26242840 -0.67351357
P 6.29
From 115 observations 1985-1997, mean residual 0".81.
|